Home   Weather   Saint-Jérôme   Past weeks

Flag for Canada Past Weather in Saint-Jérôme, Quebec, Canada — Yesterday and Last 2 Weeks

Now
41 °F

Passing clouds.


Feels Like: 35 °F
Forecast: 35 / 42 °F
Wind: 10 mph from North

Location: Montreal / Mirabel

Current Time: Apr 29, 2017 at 11:37:54 pm

Latest Report: Apr 29, 2017 at 11:00 pm


Visibility: 25 mi

Pressure: 30.24 "Hg

Humidity: 49%

Dew Point: 23 °F

Location of Saint-JérômeLocation

Past Weather in Saint-Jérôme — Graph

°F

Saint-Jérôme Temperature Yesterday

Maximum temperature yesterday: 68 °F (at 5:00 pm)
Minimum temperature yesterday: 46 °F (at 1:00 am)
Average temperature yesterday: 56 °F

High & Low Weather Summary for the Past Weeks

 TemperatureHumidityPressure
High75 °F (Apr 27, 4:00 pm)100% (Apr 15, 8:00 pm)30.50 "Hg (Apr 15, 8:00 pm)
Low30 °F (Apr 18, 5:00 am)24% (Apr 15, 2:00 pm)29.59 "Hg (Apr 16, 4:22 pm)
Average48 °F76%30.01 "Hg
* Reported Apr 14 10:00 pm — Apr 29 10:00 pm, Saint-Jérôme, Weather by CustomWeather, © 2017

Note: Actual official high and low records may vary slightly from our data, if they occured in-between our weather recording intervals... More about our weather records

Advertising

Saint-Jérôme Weather History for the Previous 24 Hours

Scroll right to see more
 ConditionsComfort  
Time TempWeatherWind HumidityBarometerVisibility
10:00 pm
Sat, Apr 29
43 °FPassing clouds.9 mph46%30.24 "Hg25 mi
9:00 pm43 °FPassing clouds.16 mph46%30.20 "Hg25 mi
8:00 pm46 °FPassing clouds.13 mph43%30.15 "Hg45 mi
7:00 pm50 °FPassing clouds.14 mph40%30.10 "Hg45 mi
6:00 pm55 °FPassing clouds.18 mph38%30.04 "Hg45 mi
5:00 pm61 °FPassing clouds.13 mph31%29.97 "Hg45 mi
4:00 pm64 °FScattered clouds.10 mph32%29.93 "Hg45 mi
3:00 pm64 °FScattered clouds.17 mph32%29.90 "Hg45 mi
2:00 pm63 °FScattered clouds.21 mph34%29.87 "Hg45 mi
1:00 pm63 °FPassing clouds.17 mph42%29.87 "Hg45 mi
12:00 pm63 °FScattered clouds.18 mph52%29.87 "Hg30 mi
11:00 am61 °FBroken clouds.18 mph55%29.89 "Hg30 mi
10:00 am57 °FBroken clouds.13 mph67%29.91 "Hg30 mi
9:00 am54 °FSprinkles. Mostly cloudy.10 mph77%29.92 "Hg45 mi
8:00 am55 °FMostly cloudy.9 mph67%29.90 "Hg45 mi
7:00 am54 °FPartly sunny.8 mph72%29.90 "Hg25 mi
6:00 am54 °FMostly cloudy.8 mph72%29.89 "Hg45 mi
5:00 am52 °FPassing clouds.5 mph77%29.88 "Hg25 mi
4:27 am52 °FPassing clouds.3 mph77%29.88 "Hg25 mi
3:00 am54 °FPassing clouds.5 mph72%29.89 "Hg25 mi
2:00 am54 °FMostly cloudy.5 mph72%29.91 "Hg25 mi
1:00 am50 °FPassing clouds.5 mph76%29.93 "Hg25 mi
12:00 am52 °FPassing clouds.5 mph72%29.92 "Hg25 mi
11:00 pm
Fri, Apr 28
54 °FPassing clouds.5 mph67%29.93 "Hg25 mi
Weather by CustomWeather, © 2017

See weather overviewHow to use our weather pages